| time (UTC) | temp C | wind direction | speed KPH | gust KPH | rain 1hr cm | rain 24hr cm | rain mn cm | humidity % | barometer mb |
| 20260510225058 | 14 | 34 | 1.6 | 4.8 | 0.00 | 0.00 | 0.00 | 46 | 1019.5 |
| 20260510225024 | 14 | 42 | 0.0 | 0.0 | 0.00 | 0.00 | 0.00 | 46 | 1017.5 |
| 20260510224608 | 15 | 51 | 0.0 | 6.4 | 0.00 | 0.00 | 0.00 | 44 | 1019.4 |
| 20260510224527 | 15 | 42 | 0.0 | 0.0 | 0.00 | 0.00 | 0.00 | 45 | 1017.5 |
| 20260510224102 | 15 | 0 | 1.6 | 6.4 | 0.00 | 0.00 | 0.00 | 43 | 1019.5 |
| 20260510224023 | 15 | 42 | 0.0 | 0.0 | 0.00 | 0.00 | 0.00 | 44 | 1017.5 |
| 20260510223604 | 15 | 83 | 0.0 | 4.8 | 0.00 | 0.00 | 0.00 | 42 | 1019.5 |
| 20260510223523 | 15 | 41 | 0.0 | 0.0 | 0.00 | 0.00 | 0.00 | 43 | 1017.5 |
| 20260510223059 | 15 | 72 | 1.6 | 4.8 | 0.00 | 0.00 | 0.00 | 42 | 1019.6 |
| 20260510223023 | 14 | 41 | 0.0 | 0.0 | 0.00 | 0.00 | 0.00 | 42 | 1017.6 |
| 20260510222601 | 14 | 74 | 0.0 | 8.0 | 0.00 | 0.00 | 0.00 | 43 | 1019.5 |
| 20260510222524 | 14 | 40 | 0.0 | 0.0 | 0.00 | 0.00 | 0.00 | 43 | 1017.6 |
| 20260510222059 | 14 | 61 | 3.2 | 8.0 | 0.00 | 0.00 | 0.00 | 44 | 1019.6 |
| 20260510222026 | 14 | 40 | 0.0 | 0.0 | 0.00 | 0.00 | 0.00 | 46 | 1017.7 |
| 20260510221603 | 14 | 61 | 1.6 | 6.4 | 0.00 | 0.00 | 0.00 | 46 | 1019.5 |
| 20260510221522 | 14 | 40 | 0.0 | 0.0 | 0.00 | 0.00 | 0.00 | 45 | 1017.6 |
| 20260510221101 | 14 | 72 | 1.6 | 6.4 | 0.00 | 0.00 | 0.00 | 46 | 1019.4 |
| 20260510221022 | 14 | 63 | 0.0 | 0.0 | 0.00 | 0.00 | 0.00 | 46 | 1017.6 |
| 20260510220559 | 14 | 61 | 1.6 | 6.4 | 0.00 | 0.00 | 0.00 | 50 | 1019.3 |
| 20260510220521 | 14 | 67 | 0.0 | 1.6 | 0.00 | 0.00 | 0.00 | 50 | 1017.5 |
| 20260510220100 | 14 | 65 | 3.2 | 12.9 | 0.00 | 0.00 | 0.00 | 45 | 1019.1 |
| 20260510220021 | 14 | 67 | 0.0 | 3.2 | 0.00 | 0.00 | 0.00 | 46 | 1017.3 |
| 20260510215558 | 15 | 80 | 4.8 | 12.9 | 0.00 | 0.00 | 0.00 | 44 | 1019.1 |
| 20260510215521 | 15 | 67 | 0.0 | 3.2 | 0.00 | 0.00 | 0.00 | 43 | 1017.3 |
| 20260510215058 | 15 | 49 | 4.8 | 8.0 | 0.00 | 0.00 | 0.00 | 44 | 1019.1 |
| 20260510215021 | 15 | 49 | 0.0 | 1.6 | 0.00 | 0.00 | 0.00 | 44 | 1017.2 |
| 20260510214559 | 15 | 33 | 3.2 | 8.0 | 0.00 | 0.00 | 0.00 | 41 | 1019.1 |
| 20260510214522 | 15 | 51 | 0.0 | 0.0 | 0.00 | 0.00 | 0.00 | 43 | 1017.2 |
| 20260510214102 | 15 | 13 | 4.8 | 9.7 | 0.00 | 0.00 | 0.00 | 42 | 1019.1 |
| 20260510214020 | 15 | 51 | 0.0 | 1.6 | 0.00 | 0.00 | 0.00 | 43 | 1017.3 |
| 20260510213604 | 15 | 67 | 4.8 | 12.9 | 0.00 | 0.00 | 0.00 | 41 | 1019.2 |
| 20260510213520 | 15 | 65 | 0.0 | 1.6 | 0.00 | 0.00 | 0.00 | 44 | 1017.2 |
| 20260510213109 | 15 | 48 | 4.8 | 12.9 | 0.00 | 0.00 | 0.00 | 43 | 1019.1 |
| 20260510213037 | 15 | 38 | 0.0 | 1.6 | 0.00 | 0.00 | 0.00 | 43 | 1017.2 |
| 20260510212601 | 15 | 61 | 3.2 | 8.0 | 0.00 | 0.00 | 0.00 | 42 | 1018.9 |
| 20260510212524 | 15 | 58 | 0.0 | 1.6 | 0.00 | 0.00 | 0.00 | 42 | 1017.0 |
| 20260510212102 | 15 | 93 | 1.6 | 6.4 | 0.00 | 0.00 | 0.00 | 49 | 1018.9 |
| 20260510212022 | 15 | 54 | 0.0 | 0.0 | 0.00 | 0.00 | 0.00 | 47 | 1016.8 |
| 20260510211637 | 14 | 94 | 1.6 | 8.0 | 0.00 | 0.00 | 0.00 | 45 | 1018.8 |
| 20260510211527 | 14 | 54 | 0.0 | 0.0 | 0.00 | 0.00 | 0.00 | 48 | 1016.8 |
| 20260510211100 | 14 | 66 | 3.2 | 8.0 | 0.00 | 0.00 | 0.00 | 44 | 1018.8 |
| 20260510211018 | 15 | 55 | 0.0 | 0.0 | 0.00 | 0.00 | 0.00 | 42 | 1016.8 |
| 20260510210602 | 14 | 39 | 3.2 | 9.7 | 0.00 | 0.00 | 0.00 | 44 | 1018.8 |
| 20260510210517 | 14 | 55 | 0.0 | 1.6 | 0.00 | 0.00 | 0.00 | 46 | 1016.8 |
| 20260510210058 | 14 | 76 | 3.2 | 14.5 | 0.00 | 0.00 | 0.00 | 45 | 1018.8 |
| 20260510210037 | 14 | 55 | 0.0 | 1.6 | 0.00 | 0.00 | 0.00 | 46 | 1016.9 |
| 20260510205604 | 14 | 69 | 4.8 | 14.5 | 0.00 | 0.00 | 0.00 | 49 | 1018.8 |
| 20260510205519 | 14 | 55 | 0.0 | 3.2 | 0.00 | 0.00 | 0.00 | 49 | 1016.8 |
| 20260510205059 | 15 | 331 | 6.4 | 11.3 | 0.00 | 0.00 | 0.00 | 44 | 1018.8 |
| 20260510205017 | 15 | 46 | 0.0 | 3.2 | 0.00 | 0.00 | 0.00 | 44 | 1016.7 |
| 20260510204601 | 15 | 75 | 3.2 | 14.5 | 0.00 | 0.00 | 0.00 | 44 | 1018.9 |
| 20260510204517 | 15 | 360 | 0.0 | 1.6 | 0.00 | 0.00 | 0.00 | 45 | 1016.7 |
| 20260510204100 | 15 | 89 | 3.2 | 16.1 | 0.00 | 0.00 | 0.00 | 46 | 1018.9 |
| 20260510204016 | 15 | 355 | 0.0 | 1.6 | 0.00 | 0.00 | 0.00 | 45 | 1016.8 |
| 20260510203600 | 15 | 14 | 4.8 | 16.1 | 0.00 | 0.00 | 0.00 | 44 | 1019.0 |
| 20260510203516 | 15 | 11 | 0.0 | 4.8 | 0.00 | 0.00 | 0.00 | 43 | 1016.8 |
| 20260510203101 | 15 | 53 | 8.0 | 16.1 | 0.00 | 0.00 | 0.00 | 43 | 1019.0 |
| 20260510203017 | 15 | 42 | 0.0 | 3.2 | 0.00 | 0.00 | 0.00 | 39 | 1016.8 |
| 20260510202618 | 15 | 346 | 0.0 | 4.8 | 0.00 | 0.00 | 0.00 | 41 | 1016.8 |
| 20260510202601 | 15 | 306 | 3.2 | 14.5 | 0.00 | 0.00 | 0.00 | 40 | 1019.0 |
| 20260510202103 | 15 | 37 | 4.8 | 14.5 | 0.00 | 0.00 | 0.00 | 46 | 1019.1 |
| 20260510202013 | 15 | 53 | 0.0 | 6.4 | 0.00 | 0.00 | 0.00 | 51 | 1017.0 |
| 20260510201559 | 15 | 53 | 8.0 | 14.5 | 0.00 | 0.00 | 0.00 | 49 | 1019.1 |
| 20260510201513 | 15 | 344 | 0.0 | 6.4 | 0.00 | 0.00 | 0.00 | 44 | 1017.0 |
| 20260510201100 | 15 | 40 | 6.4 | 12.9 | 0.00 | 0.00 | 0.00 | 46 | 1019.2 |
| 20260510201016 | 15 | 19 | 0.0 | 3.2 | 0.00 | 0.00 | 0.00 | 45 | 1017.0 |
| 20260510200601 | 15 | 49 | 6.4 | 16.1 | 0.00 | 0.00 | 0.00 | 42 | 1019.2 |
| 20260510200513 | 15 | 5 | 0.0 | 6.4 | 0.00 | 0.00 | 0.00 | 47 | 1017.1 |
| 20260510200100 | 15 | 113 | 6.4 | 16.1 | 0.00 | 0.00 | 0.00 | 49 | 1019.4 |
| 20260510200015 | 15 | 35 | 0.0 | 6.4 | 0.00 | 0.00 | 0.00 | 44 | 1017.1 |
| 20260510195600 | 15 | 17 | 4.8 | 14.5 | 0.00 | 0.00 | 0.00 | 49 | 1019.4 |
| 20260510195513 | 15 | 10 | 0.0 | 3.2 | 0.00 | 0.00 | 0.00 | 48 | 1017.2 |
| 20260510195101 | 15 | 11 | 8.0 | 14.5 | 0.00 | 0.00 | 0.00 | 46 | 1019.4 |
| 20260510195012 | 15 | 42 | 0.0 | 3.2 | 0.00 | 0.00 | 0.00 | 46 | 1017.2 |
| 20260510194618 | 15 | 105 | 6.4 | 16.1 | 0.00 | 0.00 | 0.00 | 48 | 1019.4 |
| 20260510194512 | 15 | 96 | 0.0 | 1.6 | 0.00 | 0.00 | 0.00 | 49 | 1017.1 |
| 20260510194103 | 15 | 85 | 8.0 | 16.1 | 0.00 | 0.00 | 0.00 | 43 | 1019.3 |
| 20260510194016 | 15 | 17 | 0.0 | 8.0 | 0.00 | 0.00 | 0.00 | 44 | 1017.0 |
| 20260510193602 | 15 | 88 | 6.4 | 14.5 | 0.00 | 0.00 | 0.00 | 52 | 1019.4 |
| 20260510193512 | 15 | 67 | 0.0 | 8.0 | 0.00 | 0.00 | 0.00 | 53 | 1017.1 |
| 20260510193100 | 15 | 34 | 8.0 | 16.1 | 0.00 | 0.00 | 0.00 | 48 | 1019.3 |
| 20260510193013 | 14 | 13 | 0.0 | 4.8 | 0.00 | 0.00 | 0.00 | 49 | 1017.1 |
| 20260510192601 | 13 | 28 | 8.0 | 16.1 | 0.00 | 0.00 | 0.00 | 49 | 1019.5 |
| 20260510192515 | 13 | 65 | 0.0 | 6.4 | 0.00 | 0.00 | 0.00 | 48 | 1017.1 |
| 20260510192101 | 14 | 34 | 6.4 | 12.9 | 0.00 | 0.00 | 0.00 | 48 | 1019.5 |
| 20260510192011 | 14 | 49 | 0.0 | 6.4 | 0.00 | 0.00 | 0.00 | 47 | 1017.1 |
| 20260510191619 | 15 | 34 | 6.4 | 16.1 | 0.00 | 0.00 | 0.00 | 43 | 1019.4 |
| 20260510191511 | 15 | 15 | 0.0 | 6.4 | 0.00 | 0.00 | 0.00 | 50 | 1017.1 |
| 20260510191101 | 14 | 9 | 8.0 | 16.1 | 0.00 | 0.00 | 0.00 | 51 | 1019.5 |
| 20260510191011 | 14 | 55 | 0.0 | 4.8 | 0.00 | 0.00 | 0.00 | 51 | 1017.2 |
| 20260510190604 | 14 | 42 | 6.4 | 14.5 | 0.00 | 0.00 | 0.00 | 47 | 1019.5 |
| 20260510190510 | 14 | 11 | 0.0 | 6.4 | 0.00 | 0.00 | 0.00 | 48 | 1017.1 |
| 20260510190108 | 15 | 28 | 6.4 | 16.1 | 0.00 | 0.00 | 0.00 | 50 | 1019.5 |
| 20260510190016 | 15 | 35 | 0.0 | 6.4 | 0.00 | 0.00 | 0.00 | 46 | 1017.2 |
| 20260510185601 | 15 | 59 | 6.4 | 16.1 | 0.00 | 0.00 | 0.00 | 54 | 1019.4 |
| 20260510185510 | 15 | 53 | 0.0 | 6.4 | 0.00 | 0.00 | 0.00 | 49 | 1017.1 |
| 20260510185102 | 15 | 34 | 6.4 | 14.5 | 0.00 | 0.00 | 0.00 | 47 | 1019.5 |
| 20260510185019 | 15 | 62 | 0.0 | 3.2 | 0.00 | 0.00 | 0.00 | 49 | 1017.2 |
| 20260510184602 | 14 | 32 | 6.4 | 12.9 | 0.00 | 0.00 | 0.00 | 51 | 1019.5 |
| 20260510184508 | 14 | 18 | 0.0 | 3.2 | 0.00 | 0.00 | 0.00 | 49 | 1017.3 |
| 20260510184100 | 14 | 75 | 4.8 | 16.1 | 0.00 | 0.00 | 0.00 | 48 | 1019.5 |
| 20260510184008 | 14 | 42 | 0.0 | 4.8 | 0.00 | 0.00 | 0.00 | 51 | 1017.3 |
| 20260510183601 | 14 | 69 | 8.0 | 16.1 | 0.00 | 0.00 | 0.00 | 51 | 1019.5 |
| 20260510183509 | 14 | 55 | 0.0 | 4.8 | 0.00 | 0.00 | 0.00 | 51 | 1017.2 |
| 20260510183106 | 14 | 32 | 6.4 | 14.5 | 0.00 | 0.00 | 0.00 | 54 | 1019.4 |
| 20260510183008 | 14 | 44 | 0.0 | 3.2 | 0.00 | 0.00 | 0.00 | 52 | 1017.2 |
| 20260510182604 | 14 | 28 | 6.4 | 16.1 | 0.00 | 0.00 | 0.00 | 50 | 1019.4 |
| 20260510182507 | 14 | 46 | 0.0 | 4.8 | 0.00 | 0.00 | 0.00 | 51 | 1017.1 |
| 20260510182058 | 14 | 24 | 6.4 | 16.1 | 0.00 | 0.00 | 0.00 | 52 | 1019.5 |
| 20260510182009 | 13 | 13 | 0.0 | 3.2 | 0.00 | 0.00 | 0.00 | 46 | 1017.1 |
| 20260510181608 | 14 | 74 | 6.4 | 12.9 | 0.00 | 0.00 | 0.00 | 46 | 1019.4 |
| 20260510181508 | 14 | 71 | 0.0 | 3.2 | 0.00 | 0.00 | 0.00 | 46 | 1017.1 |
| 20260510181148 | 14 | 44 | 6.4 | 12.9 | 0.00 | 0.00 | 0.00 | 49 | 1019.3 |
| 20260510181005 | 14 | 360 | 0.0 | 4.8 | 0.00 | 0.00 | 0.00 | 49 | 1017.0 |
| 20260510180601 | 14 | 39 | 6.4 | 16.1 | 0.00 | 0.00 | 0.00 | 49 | 1019.2 |
| 20260510180509 | 13 | 42 | 0.0 | 4.8 | 0.00 | 0.00 | 0.00 | 43 | 1016.9 |
| 20260510180109 | 13 | 36 | 8.0 | 16.1 | 0.00 | 0.00 | 0.00 | 49 | 1019.2 |
| 20260510180006 | 13 | 74 | 0.0 | 4.8 | 0.00 | 0.00 | 0.00 | 50 | 1016.9 |
| 20260510175605 | 14 | 17 | 4.8 | 14.5 | 0.00 | 0.00 | 0.00 | 52 | 1019.2 |
| 20260510175101 | 13 | 24 | 6.4 | 14.5 | 0.00 | 0.00 | 0.00 | 50 | 1019.2 |
| 20260510175004 | 13 | 38 | 0.0 | 1.6 | 0.00 | 0.00 | 0.00 | 48 | 1016.9 |
| 20260510174608 | 13 | 350 | 4.8 | 12.9 | 0.00 | 0.00 | 0.00 | 49 | 1019.3 |
| 20260510174505 | 13 | 47 | 0.0 | 6.4 | 0.00 | 0.00 | 0.00 | 49 | 1016.9 |
| 20260510174101 | 13 | 9 | 4.8 | 12.9 | 0.00 | 0.00 | 0.00 | 43 | 1019.2 |
| 20260510174004 | 13 | 49 | 0.0 | 6.4 | 0.00 | 0.00 | 0.00 | 47 | 1016.9 |
| 20260510173600 | 13 | 37 | 6.4 | 14.5 | 0.00 | 0.00 | 0.00 | 46 | 1019.3 |
| 20260510173503 | 13 | 61 | 0.0 | 3.2 | 0.00 | 0.00 | 0.00 | 42 | 1016.9 |
| 20260510173101 | 14 | 38 | 6.4 | 14.5 | 0.00 | 0.00 | 0.00 | 50 | 1019.2 |
| 20260510173004 | 14 | 69 | 0.0 | 4.8 | 0.00 | 0.00 | 0.00 | 52 | 1017.0 |
| 20260510172601 | 13 | 74 | 6.4 | 14.5 | 0.00 | 0.00 | 0.00 | 46 | 1019.2 |
| 20260510172504 | 13 | 22 | 0.0 | 3.2 | 0.00 | 0.00 | 0.00 | 49 | 1016.9 |
| 20260510172100 | 13 | 29 | 6.4 | 14.5 | 0.00 | 0.00 | 0.00 | 45 | 1019.2 |
| 20260510172003 | 13 | 63 | 0.0 | 3.2 | 0.00 | 0.00 | 0.00 | 51 | 1017.0 |
| 20260510171559 | 13 | 50 | 6.4 | 14.5 | 0.00 | 0.00 | 0.00 | 46 | 1019.3 |
| 20260510171506 | 13 | 36 | 0.0 | 4.8 | 0.00 | 0.00 | 0.00 | 51 | 1017.1 |
| 20260510171100 | 13 | 71 | 4.8 | 12.9 | 0.00 | 0.00 | 0.00 | 52 | 1019.4 |
| 20260510171006 | 13 | 81 | 0.0 | 3.2 | 0.00 | 0.00 | 0.00 | 51 | 1017.1 |
| 20260510170600 | 13 | 51 | 6.4 | 12.9 | 0.00 | 0.00 | 0.00 | 46 | 1019.4 |
| 20260510170503 | 13 | 41 | 0.0 | 3.2 | 0.00 | 0.00 | 0.00 | 54 | 1017.2 |
| 20260510170115 | 13 | 323 | 4.8 | 12.9 | 0.00 | 0.00 | 0.00 | 45 | 1019.4 |
| 20260510170100 | 13 | 21 | 0.0 | 3.2 | 0.00 | 0.00 | 0.00 | 46 | 1017.1 |
| 20260510165601 | 13 | 20 | 0.0 | 3.2 | 0.00 | 0.00 | 0.00 | 54 | 1017.2 |
| 20260510165105 | 13 | 28 | 4.8 | 12.9 | 0.00 | 0.00 | 0.00 | 54 | 1019.5 |
| 20260510165059 | 13 | 19 | 0.0 | 3.2 | 0.00 | 0.00 | 0.00 | 55 | 1017.2 |
| 20260510164625 | 13 | 9 | 6.4 | 12.9 | 0.00 | 0.00 | 0.00 | 60 | 1019.4 |
| 20260510164559 | 13 | 60 | 0.0 | 3.2 | 0.00 | 0.00 | 0.00 | 60 | 1017.1 |
| 20260510164100 | 13 | 32 | 3.2 | 14.5 | 0.00 | 0.00 | 0.00 | 64 | 1019.4 |
| 20260510164057 | 13 | 34 | 0.0 | 4.8 | 0.00 | 0.00 | 0.00 | 65 | 1017.2 |
| 20260510163601 | 13 | 10 | 6.4 | 14.5 | 0.00 | 0.00 | 0.00 | 62 | 1019.5 |
| 20260510163556 | 13 | 50 | 0.0 | 4.8 | 0.00 | 0.00 | 0.00 | 63 | 1017.2 |
| 20260510163107 | 13 | 11 | 6.4 | 12.9 | 0.00 | 0.00 | 0.00 | 59 | 1019.3 |
| 20260510163100 | 13 | 355 | 0.0 | 1.6 | 0.00 | 0.00 | 0.00 | 59 | 1017.1 |
| 20260510162603 | 12 | 355 | 0.0 | 1.6 | 0.00 | 0.00 | 0.00 | 61 | 1017.0 |
| 20260510162601 | 12 | 5 | 4.8 | 12.9 | 0.00 | 0.00 | 0.00 | 60 | 1019.3 |
| 20260510162100 | 13 | 22 | 4.8 | 12.9 | 0.00 | 0.00 | 0.00 | 66 | 1019.2 |
| 20260510162051 | 13 | 355 | 0.0 | 3.2 | 0.00 | 0.00 | 0.00 | 66 | 1017.0 |
| 20260510161601 | 13 | 42 | 6.4 | 11.3 | 0.00 | 0.00 | 0.00 | 67 | 1019.2 |
| 20260510161551 | 13 | 355 | 0.0 | 3.2 | 0.00 | 0.00 | 0.00 | 67 | 1017.0 |
| 20260510161101 | 12 | 57 | 4.8 | 12.9 | 0.00 | 0.00 | 0.00 | 70 | 1019.1 |
| 20260510161058 | 12 | 355 | 0.0 | 1.6 | 0.00 | 0.00 | 0.00 | 70 | 1017.0 |
| 20260510160601 | 12 | 51 | 4.8 | 14.5 | 0.00 | 0.00 | 0.00 | 66 | 1019.1 |
| 20260510160548 | 12 | 355 | 0.0 | 3.2 | 0.00 | 0.00 | 0.00 | 67 | 1016.9 |
| 20260510160127 | 12 | 38 | 6.4 | 14.5 | 0.00 | 0.00 | 0.00 | 69 | 1018.9 |
| 20260510160046 | 12 | 5 | 0.0 | 1.6 | 0.00 | 0.00 | 0.00 | 69 | 1016.8 |
| 20260510155559 | 12 | 28 | 4.8 | 14.5 | 0.00 | 0.00 | 0.00 | 68 | 1018.9 |
| 20260510155545 | 12 | 355 | 0.0 | 3.2 | 0.00 | 0.00 | 0.00 | 69 | 1016.7 |
| 20260510155101 | 12 | 352 | 6.4 | 12.9 | 0.00 | 0.00 | 0.00 | 66 | 1018.8 |
| 20260510155044 | 12 | 355 | 0.0 | 1.6 | 0.00 | 0.00 | 0.00 | 67 | 1016.7 |
| 20260510154609 | 12 | 13 | 6.4 | 12.9 | 0.00 | 0.00 | 0.00 | 68 | 1018.8 |
| 20260510154542 | 12 | 5 | 0.0 | 3.2 | 0.00 | 0.00 | 0.00 | 69 | 1016.6 |
| 20260510154100 | 13 | 19 | 6.4 | 12.9 | 0.00 | 0.00 | 0.00 | 68 | 1018.7 |
| 20260510154046 | 13 | 5 | 0.0 | 3.2 | 0.00 | 0.00 | 0.00 | 69 | 1016.5 |
| 20260510153600 | 12 | 71 | 6.4 | 12.9 | 0.00 | 0.00 | 0.00 | 68 | 1018.7 |
| 20260510153540 | 12 | 23 | 0.0 | 3.2 | 0.00 | 0.00 | 0.00 | 68 | 1016.6 |
| 20260510153101 | 12 | 11 | 4.8 | 12.9 | 0.00 | 0.00 | 0.00 | 66 | 1018.7 |
| 20260510153044 | 12 | 355 | 0.0 | 3.2 | 0.00 | 0.00 | 0.00 | 68 | 1016.6 |
| 20260510152600 | 12 | 350 | 6.4 | 16.1 | 0.00 | 0.00 | 0.00 | 68 | 1018.7 |
| 20260510152538 | 12 | 355 | 0.0 | 1.6 | 0.00 | 0.00 | 0.00 | 68 | 1016.6 |
| 20260510152104 | 12 | 340 | 8.0 | 16.1 | 0.00 | 0.00 | 0.00 | 67 | 1018.6 |
| 20260510152036 | 12 | 348 | 0.0 | 1.6 | 0.00 | 0.00 | 0.00 | 67 | 1016.6 |
| 20260510151613 | 12 | 360 | 6.4 | 14.5 | 0.00 | 0.00 | 0.00 | 68 | 1018.7 |
| 20260510151535 | 12 | 19 | 0.0 | 3.2 | 0.00 | 0.00 | 0.00 | 68 | 1016.6 |
| 20260510151058 | 12 | 26 | 8.0 | 14.5 | 0.00 | 0.00 | 0.00 | 69 | 1018.6 |
| 20260510151034 | 12 | 26 | 0.0 | 3.2 | 0.00 | 0.00 | 0.00 | 69 | 1016.4 |
| 20260510150602 | 12 | 13 | 6.4 | 14.5 | 0.00 | 0.00 | 0.00 | 68 | 1018.5 |
| 20260510150533 | 12 | 11 | 0.0 | 4.8 | 0.00 | 0.00 | 0.00 | 70 | 1016.4 |
| 20260510150032 | 12 | 350 | 0.0 | 4.8 | 0.00 | 0.00 | 0.00 | 67 | 1016.3 |
| 20260510145600 | 12 | 5 | 8.0 | 14.5 | 0.00 | 0.00 | 0.00 | 67 | 1018.3 |
| 20260510145530 | 12 | 350 | 0.0 | 4.8 | 0.00 | 0.00 | 0.00 | 69 | 1016.2 |
| 20260510145058 | 12 | 19 | 6.4 | 14.5 | 0.00 | 0.00 | 0.00 | 70 | 1018.4 |
| 20260510145029 | 12 | 53 | 0.0 | 1.6 | 0.00 | 0.00 | 0.00 | 68 | 1016.1 |
| 20260510144619 | 12 | 37 | 6.4 | 14.5 | 0.00 | 0.00 | 0.00 | 66 | 1018.3 |
| 20260510144532 | 12 | 33 | 0.0 | 3.2 | 0.00 | 0.00 | 0.00 | 67 | 1016.2 |
| 20260510144144 | 12 | 26 | 0.0 | 6.4 | 0.00 | 0.00 | 0.00 | 69 | 1016.1 |
| 20260510144100 | 12 | 52 | 9.7 | 16.1 | 0.00 | 0.00 | 0.00 | 69 | 1018.2 |
| 20260510143600 | 12 | 57 | 9.7 | 16.1 | 0.00 | 0.00 | 0.00 | 68 | 1018.3 |
| 20260510143527 | 12 | 24 | 0.0 | 6.4 | 0.00 | 0.00 | 0.00 | 69 | 1016.0 |
| 20260510143100 | 12 | 24 | 6.4 | 16.1 | 0.00 | 0.00 | 0.00 | 67 | 1018.1 |
| 20260510143022 | 12 | 344 | 0.0 | 3.2 | 0.00 | 0.00 | 0.00 | 68 | 1015.9 |
| 20260510142601 | 12 | 28 | 8.0 | 16.1 | 0.00 | 0.00 | 0.00 | 67 | 1018.2 |
| 20260510142521 | 12 | 5 | 0.0 | 3.2 | 0.00 | 0.00 | 0.00 | 67 | 1016.0 |
| 20260510142100 | 12 | 28 | 6.4 | 17.7 | 0.00 | 0.00 | 0.00 | 68 | 1018.1 |
| 20260510142020 | 12 | 52 | 0.0 | 3.2 | 0.00 | 0.00 | 0.00 | 68 | 1016.0 |
| 20260510141600 | 12 | 39 | 8.0 | 17.7 | 0.00 | 0.00 | 0.00 | 66 | 1018.1 |
| 20260510141519 | 12 | 15 | 0.0 | 3.2 | 0.00 | 0.00 | 0.00 | 67 | 1015.9 |
| 20260510141100 | 12 | 44 | 11.3 | 17.7 | 0.00 | 0.00 | 0.00 | 68 | 1018.1 |
| 20260510141019 | 12 | 19 | 0.0 | 3.2 | 0.00 | 0.00 | 0.00 | 68 | 1015.8 |
| 20260510140601 | 12 | 51 | 9.7 | 16.1 | 0.00 | 0.00 | 0.00 | 67 | 1018.1 |
| 20260510140516 | 12 | 38 | 0.0 | 3.2 | 0.00 | 0.00 | 0.00 | 69 | 1015.8 |
| 20260510140059 | 12 | 31 | 11.3 | 17.7 | 0.00 | 0.00 | 0.00 | 67 | 1018.1 |
| 20260510140015 | 12 | 5 | 0.0 | 3.2 | 0.00 | 0.00 | 0.00 | 68 | 1015.8 |
| 20260510135600 | 12 | 27 | 9.7 | 19.3 | 0.00 | 0.00 | 0.00 | 67 | 1018.1 |
| 20260510135514 | 12 | 360 | 0.0 | 4.8 | 0.00 | 0.00 | 0.00 | 68 | 1015.8 |
| 20260510135100 | 12 | 42 | 12.9 | 19.3 | 0.00 | 0.00 | 0.00 | 67 | 1018.0 |
| 20260510135012 | 12 | 350 | 0.0 | 4.8 | 0.00 | 0.00 | 0.00 | 68 | 1015.8 |
| 20260510134600 | 12 | 32 | 12.9 | 19.3 | 0.00 | 0.00 | 0.00 | 67 | 1018.1 |
| 20260510134511 | 12 | 360 | 0.0 | 3.2 | 0.00 | 0.00 | 0.00 | 69 | 1015.8 |
| 20260510134100 | 12 | 27 | 9.7 | 19.3 | 0.00 | 0.00 | 0.00 | 69 | 1018.0 |
| 20260510134008 | 12 | 19 | 0.0 | 3.2 | 0.00 | 0.00 | 0.00 | 69 | 1015.9 |
| 20260510133600 | 12 | 22 | 11.3 | 19.3 | 0.00 | 0.00 | 0.00 | 68 | 1018.0 |
| 20260510133507 | 12 | 351 | 0.0 | 3.2 | 0.00 | 0.00 | 0.00 | 70 | 1015.8 |
| 20260510133100 | 12 | 342 | 11.3 | 17.7 | 0.00 | 0.00 | 0.00 | 68 | 1017.9 |
| 20260510133006 | 12 | 28 | 0.0 | 4.8 | 0.00 | 0.00 | 0.00 | 67 | 1015.7 |
| 20260510132600 | 12 | 24 | 11.3 | 20.9 | 0.00 | 0.00 | 0.00 | 67 | 1017.9 |
| 20260510132504 | 12 | 346 | 0.0 | 4.8 | 0.00 | 0.00 | 0.00 | 68 | 1015.7 |
| 20260510132110 | 12 | 355 | 0.0 | 4.8 | 0.00 | 0.00 | 0.00 | 69 | 1015.7 |
| 20260510132100 | 12 | 31 | 12.9 | 20.9 | 0.00 | 0.00 | 0.00 | 69 | 1017.8 |
| 20260510131559 | 11 | 24 | 12.9 | 19.3 | 0.00 | 0.00 | 0.00 | 68 | 1017.6 |
| 20260510131502 | 11 | 348 | 0.0 | 4.8 | 0.00 | 0.00 | 0.00 | 68 | 1015.6 |
| 20260510131100 | 11 | 355 | 0.0 | 4.8 | 0.00 | 0.00 | 0.00 | 68 | 1015.5 |
| 20260510130603 | 11 | 10 | 8.0 | 14.5 | 0.00 | 0.00 | 0.00 | 69 | 1017.5 |
| 20260510130559 | 11 | 24 | 0.0 | 4.8 | 0.00 | 0.00 | 0.00 | 69 | 1015.4 |
| 20260510130101 | 11 | 34 | 0.0 | 1.6 | 0.00 | 0.00 | 0.00 | 68 | 1015.3 |
| 20260510125603 | 11 | 22 | 8.0 | 16.1 | 0.00 | 0.00 | 0.00 | 67 | 1017.2 |
| 20260510125558 | 11 | 49 | 0.0 | 1.6 | 0.00 | 0.00 | 0.00 | 67 | 1015.2 |
| 20260510125100 | 11 | 24 | 9.7 | 17.7 | 0.00 | 0.00 | 0.00 | 67 | 1017.3 |
| 20260510125058 | 11 | 9 | 0.0 | 1.6 | 0.00 | 0.00 | 0.00 | 67 | 1015.2 |
| 20260510124612 | 11 | 31 | 8.0 | 19.3 | 0.00 | 0.00 | 0.00 | 66 | 1017.2 |
| 20260510124559 | 11 | 9 | 0.0 | 1.6 | 0.00 | 0.00 | 0.00 | 67 | 1015.2 |
| 20260510124100 | 11 | 43 | 9.7 | 22.5 | 0.00 | 0.00 | 0.00 | 68 | 1017.2 |
| 20260510124056 | 11 | 355 | 0.0 | 6.4 | 0.00 | 0.00 | 0.00 | 69 | 1015.2 |
| 20260510123601 | 11 | 16 | 14.5 | 22.5 | 0.00 | 0.00 | 0.00 | 67 | 1017.1 |
| 20260510123555 | 11 | 5 | 0.0 | 6.4 | 0.00 | 0.00 | 0.00 | 67 | 1015.1 |
| 20260510123059 | 11 | 29 | 14.5 | 24.1 | 0.00 | 0.00 | 0.00 | 68 | 1017.1 |
| 20260510123053 | 11 | 336 | 1.6 | 8.0 | 0.00 | 0.00 | 0.00 | 69 | 1014.8 |
| 20260510122604 | 10 | 40 | 16.1 | 24.1 | 0.00 | 0.00 | 0.00 | 68 | 1017.0 |
| 20260510122551 | 10 | 24 | 0.0 | 8.0 | 0.00 | 0.00 | 0.00 | 69 | 1014.9 |
| 20260510122100 | 11 | 11 | 14.5 | 22.5 | 0.00 | 0.00 | 0.00 | 68 | 1016.9 |
| 20260510122051 | 11 | 9 | 1.6 | 6.4 | 0.00 | 0.00 | 0.00 | 68 | 1014.8 |
| 20260510121601 | 11 | 15 | 12.9 | 22.5 | 0.00 | 0.00 | 0.00 | 68 | 1016.8 |
| 20260510121550 | 11 | 360 | 0.0 | 6.4 | 0.00 | 0.00 | 0.00 | 69 | 1014.7 |
| 20260510121513 | 11 | 355 | 0.0 | 6.4 | 0.00 | 0.00 | 0.00 | 69 | 1014.7 |
| 20260510121100 | 11 | 14 | 12.9 | 24.1 | 0.00 | 0.00 | 0.00 | 67 | 1016.8 |
| 20260510121057 | 11 | 355 | 0.0 | 6.4 | 0.00 | 0.00 | 0.00 | 68 | 1014.8 |
| 20260510120600 | 11 | 25 | 16.1 | 27.4 | 0.00 | 0.00 | 0.00 | 68 | 1016.6 |
| 20260510120547 | 11 | 5 | 0.0 | 6.4 | 0.00 | 0.00 | 0.00 | 68 | 1014.6 |
| 20260510120105 | 11 | 15 | 16.1 | 27.4 | 0.00 | 0.00 | 0.00 | 67 | 1016.5 |
| 20260510120046 | 11 | 341 | 1.6 | 6.4 | 0.00 | 0.00 | 0.00 | 68 | 1014.6 |
| 20260510115603 | 11 | 24 | 16.1 | 25.7 | 0.00 | 0.00 | 0.00 | 68 | 1016.5 |
| 20260510115544 | 11 | 5 | 0.0 | 4.8 | 0.00 | 0.00 | 0.00 | 69 | 1014.6 |
| 20260510115100 | 10 | 32 | 17.7 | 25.7 | 0.00 | 0.00 | 0.00 | 68 | 1016.3 |
| 20260510115043 | 10 | 348 | 0.0 | 4.8 | 0.00 | 0.00 | 0.00 | 69 | 1014.4 |
| 20260510114600 | 10 | 9 | 16.1 | 25.7 | 0.00 | 0.00 | 0.00 | 68 | 1016.2 |
| 20260510114542 | 10 | 5 | 0.0 | 11.3 | 0.00 | 0.00 | 0.00 | 68 | 1014.2 |
| 20260510114100 | 10 | 38 | 16.1 | 25.7 | 0.00 | 0.00 | 0.00 | 68 | 1016.2 |
| 20260510114041 | 10 | 17 | 0.0 | 11.3 | 0.00 | 0.00 | 0.00 | 68 | 1014.1 |
| 20260510113630 | 10 | 28 | 16.1 | 27.4 | 0.00 | 0.00 | 0.00 | 69 | 1016.0 |
| 20260510113540 | 10 | 20 | 0.0 | 6.4 | 0.00 | 0.00 | 0.00 | 70 | 1014.1 |
| 20260510113105 | 10 | 41 | 14.5 | 29.0 | 0.00 | 0.00 | 0.00 | 68 | 1016.0 |
| 20260510113043 | 10 | 5 | 0.0 | 6.4 | 0.00 | 0.00 | 0.00 | 69 | 1014.1 |
| 20260510112600 | 10 | 44 | 19.3 | 29.0 | 0.00 | 0.00 | 0.00 | 68 | 1015.9 |
| 20260510112538 | 10 | 28 | 0.0 | 14.5 | 0.00 | 0.00 | 0.00 | 69 | 1013.9 |
| 20260510112101 | 10 | 30 | 14.5 | 25.7 | 0.00 | 0.00 | 0.00 | 72 | 1015.7 |
| 20260510112040 | 10 | 355 | 0.0 | 14.5 | 0.00 | 0.00 | 0.00 | 72 | 1013.8 |
| 20260510111600 | 10 | 41 | 14.5 | 30.6 | 0.00 | 0.00 | 0.00 | 73 | 1015.6 |
| 20260510111536 | 10 | 355 | 0.0 | 3.2 | 0.00 | 0.00 | 0.00 | 73 | 1013.6 |
| 20260510111100 | 10 | 56 | 19.3 | 30.6 | 0.00 | 0.00 | 0.00 | 71 | 1015.6 |
| 20260510111034 | 10 | 9 | 0.0 | 3.2 | 0.00 | 0.00 | 0.00 | 72 | 1013.6 |
| 20260510110604 | 10 | 9 | 19.3 | 29.0 | 0.00 | 0.00 | 0.00 | 72 | 1015.5 |
| 20260510110536 | 10 | 9 | 0.0 | 3.2 | 0.00 | 0.00 | 0.00 | 72 | 1013.5 |
| 20260510110059 | 10 | 17 | 16.1 | 29.0 | 0.00 | 0.00 | 0.00 | 73 | 1015.4 |
| 20260510110036 | 10 | 355 | 0.0 | 8.0 | 0.00 | 0.00 | 0.00 | 73 | 1013.3 |
| 20260510105602 | 10 | 34 | 16.1 | 27.4 | 0.00 | 0.00 | 0.00 | 72 | 1015.1 |
| 20260510105533 | 10 | 10 | 0.0 | 8.0 | 0.00 | 0.00 | 0.00 | 73 | 1013.3 |
| 20260510105100 | 10 | 32 | 19.3 | 27.4 | 0.00 | 0.00 | 0.00 | 71 | 1015.1 |
| 20260510105035 | 10 | 31 | 0.0 | 4.8 | 0.00 | 0.00 | 0.00 | 72 | 1013.2 |
| 20260510104605 | 10 | 13 | 19.3 | 29.0 | 0.00 | 0.00 | 0.00 | 72 | 1015.0 |
| 20260510104100 | 10 | 39 | 17.7 | 29.0 | 0.00 | 0.00 | 0.00 | 72 | 1015.0 |
| 20260510104030 | 10 | 5 | 0.0 | 3.2 | 0.00 | 0.00 | 0.00 | 72 | 1013.1 |
| 20260510103600 | 10 | 22 | 17.7 | 30.6 | 0.00 | 0.00 | 0.00 | 72 | 1014.7 |
| 20260510103527 | 10 | 10 | 0.0 | 9.7 | 0.00 | 0.00 | 0.00 | 73 | 1012.9 |
| 20260510103059 | 10 | 50 | 16.1 | 30.6 | 0.00 | 0.00 | 0.00 | 73 | 1014.6 |
| 20260510103026 | 10 | 17 | 0.0 | 9.7 | 0.00 | 0.00 | 0.00 | 74 | 1012.7 |
| 20260510102559 | 10 | 24 | 17.7 | 29.0 | 0.00 | 0.00 | 0.00 | 74 | 1014.6 |
| 20260510102525 | 10 | 12 | 0.0 | 9.7 | 0.00 | 0.00 | 0.00 | 74 | 1012.5 |
| 20260510102100 | 10 | 27 | 17.7 | 32.2 | 0.00 | 0.00 | 0.00 | 74 | 1014.4 |
| 20260510102026 | 10 | 40 | 0.0 | 8.0 | 0.00 | 0.00 | 0.00 | 75 | 1012.6 |
| 20260510101602 | 10 | 35 | 20.9 | 32.2 | 0.00 | 0.00 | 0.00 | 75 | 1014.4 |
| 20260510101523 | 10 | 355 | 1.6 | 6.4 | 0.00 | 0.00 | 0.00 | 76 | 1012.4 |
| 20260510101058 | 10 | 46 | 20.9 | 30.6 | 0.00 | 0.00 | 0.00 | 76 | 1014.3 |
| 20260510101021 | 10 | 355 | 1.6 | 4.8 | 0.00 | 0.00 | 0.00 | 77 | 1012.2 |
| 20260510100602 | 11 | 26 | 17.7 | 27.4 | 0.00 | 0.00 | 0.00 | 76 | 1014.1 |
| 20260510100520 | 11 | 11 | 1.6 | 6.4 | 0.00 | 0.00 | 0.00 | 77 | 1012.1 |
| 20260510100058 | 11 | 17 | 16.1 | 24.1 | 0.00 | 0.00 | 0.00 | 76 | 1014.0 |
| 20260510100020 | 11 | 12 | 0.0 | 3.2 | 0.00 | 0.00 | 0.00 | 77 | 1012.1 |
| 20260510095600 | 11 | 24 | 16.1 | 24.1 | 0.00 | 0.00 | 0.00 | 76 | 1014.1 |
| 20260510095520 | 11 | 5 | 0.0 | 3.2 | 0.00 | 0.00 | 0.00 | 77 | 1012.1 |
| 20260510095101 | 11 | 37 | 14.5 | 22.5 | 0.00 | 0.00 | 0.00 | 75 | 1013.9 |
| 20260510095019 | 11 | 17 | 0.0 | 3.2 | 0.00 | 0.00 | 0.00 | 76 | 1011.9 |
| 20260510094613 | 11 | 36 | 12.9 | 22.5 | 0.00 | 0.00 | 0.00 | 74 | 1013.8 |
| 20260510094525 | 11 | 21 | 0.0 | 3.2 | 0.00 | 0.00 | 0.00 | 74 | 1011.8 |
| 20260510094058 | 11 | 37 | 11.3 | 22.5 | 0.00 | 0.00 | 0.00 | 70 | 1013.8 |
| 20260510094016 | 11 | 44 | 0.0 | 3.2 | 0.00 | 0.00 | 0.00 | 71 | 1011.7 |
| 20260510093558 | 11 | 47 | 11.3 | 20.9 | 0.00 | 0.00 | 0.00 | 69 | 1013.6 |
| 20260510093516 | 11 | 22 | 0.0 | 1.6 | 0.00 | 0.00 | 0.00 | 70 | 1011.6 |
| 20260510093119 | 11 | 42 | 11.3 | 17.7 | 0.00 | 0.00 | 0.00 | 71 | 1013.5 |
| 20260510093017 | 11 | 5 | 0.0 | 0.0 | 0.00 | 0.00 | 0.00 | 72 | 1011.6 |
| 20260510092558 | 11 | 72 | 9.7 | 17.7 | 0.00 | 0.00 | 0.00 | 71 | 1013.5 |
| 20260510092514 | 11 | 46 | 0.0 | 1.6 | 0.00 | 0.00 | 0.00 | 71 | 1011.3 |
| 20260510092100 | 11 | 45 | 8.0 | 16.1 | 0.00 | 0.00 | 0.00 | 71 | 1013.4 |
| 20260510092012 | 11 | 24 | 0.0 | 0.0 | 0.00 | 0.00 | 0.00 | 72 | 1011.3 |
| 20260510091601 | 11 | 38 | 8.0 | 16.1 | 0.00 | 0.00 | 0.00 | 70 | 1013.5 |
| 20260510091512 | 11 | 50 | 0.0 | 0.0 | 0.00 | 0.00 | 0.00 | 71 | 1011.4 |
| 20260510091058 | 11 | 50 | 12.9 | 16.1 | 0.00 | 0.00 | 0.00 | 71 | 1013.4 |
| 20260510091012 | 11 | 46 | 0.0 | 1.6 | 0.00 | 0.00 | 0.00 | 71 | 1011.3 |
| 20260510090605 | 11 | 38 | 8.0 | 16.1 | 0.00 | 0.00 | 0.00 | 70 | 1013.4 |
| 20260510090512 | 11 | 51 | 0.0 | 0.0 | 0.00 | 0.00 | 0.00 | 70 | 1011.3 |
| 20260510090100 | 11 | 63 | 9.7 | 16.1 | 0.00 | 0.00 | 0.00 | 70 | 1013.2 |
| 20260510090016 | 11 | 54 | 0.0 | 0.0 | 0.00 | 0.00 | 0.00 | 71 | 1010.9 |
| 20260510085600 | 11 | 29 | 4.8 | 9.7 | 0.00 | 0.00 | 0.00 | 71 | 1013.1 |
| 20260510085510 | 11 | 49 | 0.0 | 0.0 | 0.00 | 0.00 | 0.00 | 71 | 1010.9 |
| 20260510085100 | 11 | 32 | 6.4 | 9.7 | 0.00 | 0.00 | 0.00 | 71 | 1013.1 |
| 20260510085011 | 11 | 61 | 0.0 | 0.0 | 0.00 | 0.00 | 0.00 | 71 | 1010.8 |
| 20260510084601 | 11 | 67 | 1.6 | 9.7 | 0.00 | 0.00 | 0.00 | 71 | 1013.0 |
| 20260510084507 | 11 | 61 | 0.0 | 0.0 | 0.00 | 0.00 | 0.00 | 71 | 1010.8 |
| 20260510084100 | 12 | 34 | 4.8 | 9.7 | 0.00 | 0.00 | 0.00 | 70 | 1013.0 |
| 20260510084007 | 12 | 61 | 0.0 | 0.0 | 0.00 | 0.00 | 0.00 | 71 | 1010.8 |
| 20260510083558 | 12 | 24 | 4.8 | 9.7 | 0.00 | 0.00 | 0.00 | 70 | 1012.8 |
| 20260510083507 | 12 | 61 | 0.0 | 0.0 | 0.00 | 0.00 | 0.00 | 70 | 1010.7 |
| 20260510083116 | 12 | 61 | 0.0 | 0.0 | 0.00 | 0.00 | 0.00 | 70 | 1010.8 |
| 20260510083101 | 12 | 37 | 4.8 | 9.7 | 0.00 | 0.00 | 0.00 | 70 | 1012.8 |
| 20260510082604 | 11 | 45 | 4.8 | 9.7 | 0.00 | 0.00 | 0.00 | 70 | 1012.7 |
| 20260510082506 | 12 | 61 | 0.0 | 0.0 | 0.00 | 0.00 | 0.00 | 70 | 1010.6 |
| 20260510082100 | 12 | 40 | 4.8 | 14.5 | 0.00 | 0.00 | 0.00 | 70 | 1012.7 |
| 20260510082004 | 12 | 49 | 0.0 | 0.0 | 0.00 | 0.00 | 0.00 | 70 | 1010.6 |
| 20260510081600 | 12 | 26 | 3.2 | 14.5 | 0.00 | 0.00 | 0.00 | 69 | 1012.7 |
| 20260510081506 | 12 | 49 | 0.0 | 0.0 | 0.00 | 0.00 | 0.00 | 70 | 1010.7 |
| 20260510081103 | 12 | 40 | 6.4 | 14.5 | 0.00 | 0.00 | 0.00 | 69 | 1012.7 |
| 20260510081003 | 12 | 44 | 0.0 | 0.0 | 0.00 | 0.00 | 0.00 | 69 | 1010.6 |
| 20260510080558 | 12 | 44 | 6.4 | 14.5 | 0.00 | 0.00 | 0.00 | 69 | 1012.7 |
| 20260510080503 | 12 | 44 | 0.0 | 0.0 | 0.00 | 0.00 | 0.00 | 69 | 1010.6 |
| 20260510080100 | 12 | 29 | 6.4 | 17.7 | 0.00 | 0.00 | 0.00 | 69 | 1012.7 |
| 20260510080001 | 12 | 38 | 0.0 | 0.0 | 0.00 | 0.00 | 0.00 | 70 | 1010.4 |
| 20260510075601 | 12 | 355 | 0.0 | 0.0 | 0.00 | 0.00 | 0.00 | 70 | 1010.3 |
| 20260510075558 | 12 | 34 | 8.0 | 17.7 | 0.00 | 0.00 | 0.00 | 70 | 1012.4 |
| 20260510075059 | 12 | 355 | 0.0 | 0.0 | 0.00 | 0.00 | 0.00 | 70 | 1010.2 |
| 20260510074559 | 12 | 355 | 0.0 | 0.0 | 0.00 | 0.00 | 0.00 | 68 | 1010.1 |
| 20260510074059 | 12 | 42 | 0.0 | 0.0 | 0.00 | 0.00 | 0.00 | 68 | 1010.1 |
| 20260510073559 | 12 | 22 | 11.3 | 16.1 | 0.00 | 0.00 | 0.00 | 68 | 1012.2 |
| 20260510073058 | 12 | 5 | 9.7 | 17.7 | 0.00 | 0.00 | 0.00 | 70 | 1012.1 |
| 20260510072600 | 12 | 36 | 9.7 | 17.7 | 0.00 | 0.00 | 0.00 | 70 | 1012.1 |
| 20260510072557 | 12 | 43 | 0.0 | 0.0 | 0.00 | 0.00 | 0.00 | 70 | 1009.9 |
| 20260510072059 | 12 | 42 | 8.0 | 17.7 | 0.00 | 0.00 | 0.00 | 71 | 1011.9 |
| 20260510072056 | 12 | 38 | 0.0 | 0.0 | 0.00 | 0.00 | 0.00 | 71 | 1009.8 |
| 20260510071559 | 12 | 24 | 0.0 | 0.0 | 0.00 | 0.00 | 0.00 | 71 | 1009.8 |
| 20260510071059 | 12 | 26 | 9.7 | 17.7 | 0.00 | 0.00 | 0.00 | 71 | 1011.8 |
| 20260510071054 | 12 | 24 | 0.0 | 0.0 | 0.00 | 0.00 | 0.00 | 72 | 1009.8 |
| 20260510070559 | 12 | 51 | 9.7 | 16.1 | 0.00 | 0.00 | 0.00 | 71 | 1011.7 |
| 20260510070554 | 12 | 17 | 0.0 | 1.6 | 0.00 | 0.00 | 0.00 | 72 | 1009.7 |
| 20260510070059 | 12 | 42 | 8.0 | 16.1 | 0.00 | 0.00 | 0.00 | 73 | 1011.6 |
| 20260510070053 | 12 | 13 | 0.0 | 0.0 | 0.00 | 0.00 | 0.00 | 73 | 1009.6 |
| 20260510065603 | 12 | 31 | 9.7 | 17.7 | 0.00 | 0.00 | 0.00 | 72 | 1011.6 |
| 20260510065553 | 12 | 11 | 0.0 | 0.0 | 0.00 | 0.00 | 0.00 | 73 | 1009.4 |
| 20260510065101 | 12 | 43 | 8.0 | 17.7 | 0.00 | 0.00 | 0.00 | 72 | 1011.4 |
| 20260510065053 | 12 | 355 | 0.0 | 6.4 | 0.00 | 0.00 | 0.00 | 73 | 1009.4 |
| 20260510064558 | 12 | 61 | 9.7 | 17.7 | 0.00 | 0.00 | 0.00 | 72 | 1011.6 |
| 20260510064552 | 12 | 74 | 0.0 | 6.4 | 0.00 | 0.00 | 0.00 | 72 | 1009.4 |
| 20260510064059 | 12 | 36 | 8.0 | 17.7 | 0.00 | 0.00 | 0.00 | 74 | 1011.4 |
| 20260510064051 | 12 | 44 | 0.0 | 1.6 | 0.00 | 0.00 | 0.00 | 74 | 1009.4 |
| 20260510063602 | 12 | 32 | 9.7 | 19.3 | 0.00 | 0.00 | 0.00 | 73 | 1011.4 |
| 20260510063551 | 12 | 20 | 0.0 | 1.6 | 0.00 | 0.00 | 0.00 | 74 | 1009.3 |
| 20260510063105 | 12 | 36 | 9.7 | 20.9 | 0.00 | 0.00 | 0.00 | 73 | 1011.3 |
| 20260510063050 | 12 | 18 | 0.0 | 4.8 | 0.00 | 0.00 | 0.00 | 74 | 1009.2 |
| 20260510062603 | 12 | 34 | 11.3 | 20.9 | 0.00 | 0.00 | 0.00 | 73 | 1011.3 |
| 20260510062549 | 12 | 25 | 0.0 | 4.8 | 0.00 | 0.00 | 0.00 | 74 | 1009.1 |
| 20260510062059 | 12 | 63 | 8.0 | 19.3 | 0.00 | 0.00 | 0.00 | 75 | 1011.2 |
| 20260510062050 | 12 | 23 | 0.0 | 3.2 | 0.00 | 0.00 | 0.00 | 75 | 1009.1 |
| 20260510061558 | 12 | 32 | 11.3 | 20.9 | 0.00 | 0.00 | 0.00 | 75 | 1011.0 |
| 20260510061551 | 12 | 30 | 0.0 | 3.2 | 0.00 | 0.00 | 0.00 | 75 | 1009.0 |
| 20260510061102 | 12 | 37 | 11.3 | 20.9 | 0.00 | 0.00 | 0.00 | 76 | 1010.9 |
| 20260510061046 | 12 | 5 | 0.0 | 3.2 | 0.00 | 0.00 | 0.00 | 76 | 1009.0 |
| 20260510060600 | 12 | 37 | 11.3 | 19.3 | 0.00 | 0.00 | 0.00 | 76 | 1010.9 |
| 20260510060545 | 12 | 37 | 0.0 | 3.2 | 0.00 | 0.00 | 0.00 | 76 | 1008.8 |
| 20260510060104 | 13 | 34 | 11.3 | 22.5 | 0.00 | 0.00 | 0.00 | 76 | 1010.8 |
| 20260510060044 | 13 | 45 | 0.0 | 0.0 | 0.00 | 0.00 | 0.00 | 76 | 1008.8 |
| 20260510055558 | 13 | 33 | 11.3 | 24.1 | 0.00 | 0.00 | 0.00 | 76 | 1010.8 |
| 20260510055542 | 13 | 9 | 0.0 | 1.6 | 0.00 | 0.00 | 0.00 | 76 | 1008.8 |
| 20260510055059 | 13 | 11 | 12.9 | 24.1 | 0.00 | 0.00 | 0.00 | 75 | 1010.6 |
| 20260510055041 | 13 | 5 | 0.0 | 3.2 | 0.00 | 0.00 | 0.00 | 75 | 1008.7 |
| 20260510054559 | 13 | 19 | 17.7 | 24.1 | 0.00 | 0.00 | 0.00 | 73 | 1010.4 |
| 20260510054544 | 13 | 360 | 0.0 | 3.2 | 0.00 | 0.00 | 0.00 | 74 | 1008.6 |
| 20260510054100 | 13 | 9 | 16.1 | 24.1 | 0.00 | 0.00 | 0.00 | 74 | 1010.4 |
| 20260510054039 | 13 | 14 | 0.0 | 6.4 | 0.00 | 0.00 | 0.00 | 75 | 1008.5 |
| 20260510053600 | 13 | 11 | 16.1 | 24.1 | 0.00 | 0.00 | 0.00 | 75 | 1010.4 |
| 20260510053539 | 13 | 347 | 0.0 | 4.8 | 0.00 | 0.00 | 0.00 | 75 | 1008.5 |
| 20260510053139 | 13 | 10 | 0.0 | 3.2 | 0.00 | 0.00 | 0.00 | 75 | 1008.4 |
| 20260510053105 | 13 | 352 | 12.9 | 22.5 | 0.00 | 0.00 | 0.00 | 75 | 1010.3 |
| 20260510052559 | 13 | 19 | 16.1 | 24.1 | 0.00 | 0.00 | 0.00 | 74 | 1010.3 |
| 20260510052536 | 13 | 348 | 0.0 | 3.2 | 0.00 | 0.00 | 0.00 | 74 | 1008.3 |
| 20260510052059 | 14 | 15 | 16.1 | 24.1 | 0.00 | 0.00 | 0.00 | 72 | 1010.2 |
| 20260510052035 | 14 | 355 | 0.0 | 3.2 | 0.00 | 0.00 | 0.00 | 72 | 1008.2 |
| 20260510051601 | 14 | 21 | 14.5 | 24.1 | 0.00 | 0.00 | 0.00 | 72 | 1010.0 |
| 20260510051534 | 14 | 360 | 0.0 | 3.2 | 0.00 | 0.00 | 0.00 | 72 | 1008.1 |
| 20260510051059 | 14 | 18 | 14.5 | 22.5 | 0.00 | 0.00 | 0.00 | 72 | 1009.9 |
| 20260510051032 | 14 | 355 | 0.0 | 3.2 | 0.00 | 0.00 | 0.00 | 73 | 1007.9 |
| 20260510050602 | 15 | 22 | 9.7 | 20.9 | 0.00 | 0.00 | 0.00 | 71 | 1010.0 |
| 20260510050531 | 15 | 360 | 0.0 | 8.0 | 0.00 | 0.00 | 0.00 | 72 | 1007.9 |
| 20260510050100 | 15 | 44 | 8.0 | 20.9 | 0.00 | 0.00 | 0.00 | 70 | 1009.9 |
| 20260510050029 | 15 | 325 | 0.0 | 8.0 | 0.00 | 0.00 | 0.00 | 70 | 1007.7 |
| 20260510045559 | 15 | 349 | 6.4 | 17.7 | 0.00 | 0.00 | 0.00 | 69 | 1009.8 |
| 20260510045532 | 15 | 344 | 0.0 | 4.8 | 0.00 | 0.00 | 0.00 | 70 | 1007.7 |
| 20260510045100 | 15 | 352 | 6.4 | 19.3 | 0.00 | 0.00 | 0.00 | 69 | 1009.7 |
| 20260510045028 | 15 | 345 | 0.0 | 4.8 | 0.00 | 0.00 | 0.00 | 70 | 1007.6 |
| 20260510044600 | 15 | 345 | 6.4 | 20.9 | 0.00 | 0.00 | 0.00 | 69 | 1009.6 |
| 20260510044526 | 15 | 355 | 0.0 | 3.2 | 0.00 | 0.00 | 0.00 | 70 | 1007.5 |
| 20260510044100 | 15 | 352 | 4.8 | 20.9 | 0.00 | 0.00 | 0.00 | 69 | 1009.4 |
| 20260510044027 | 15 | 343 | 0.0 | 4.8 | 0.00 | 0.00 | 0.00 | 69 | 1007.2 |
| 20260510043600 | 15 | 27 | 6.4 | 20.9 | 0.00 | 0.00 | 0.00 | 69 | 1009.3 |
| 20260510043528 | 16 | 323 | 0.0 | 6.4 | 0.00 | 0.00 | 0.00 | 69 | 1007.1 |
| 20260510043105 | 16 | 10 | 6.4 | 17.7 | 0.00 | 0.00 | 0.00 | 68 | 1009.2 |
| 20260510043024 | 16 | 340 | 0.0 | 6.4 | 0.00 | 0.00 | 0.00 | 69 | 1007.0 |
| 20260510042600 | 16 | 225 | 4.8 | 17.7 | 0.00 | 0.00 | 0.00 | 70 | 1009.2 |
| 20260510042523 | 16 | 320 | 0.0 | 4.8 | 0.00 | 0.00 | 0.00 | 70 | 1007.0 |
| 20260510042101 | 16 | 336 | 4.8 | 17.7 | 0.00 | 0.00 | 0.00 | 70 | 1008.9 |
| 20260510042025 | 16 | 329 | 0.0 | 3.2 | 0.00 | 0.00 | 0.00 | 70 | 1006.6 |
| 20260510041558 | 15 | 53 | 6.4 | 17.7 | 0.00 | 0.00 | 0.00 | 72 | 1008.7 |
| 20260510041520 | 15 | 355 | 0.0 | 4.8 | 0.00 | 0.00 | 0.00 | 73 | 1006.4 |
| 20260510041100 | 15 | 339 | 1.6 | 9.7 | 0.00 | 0.00 | 0.00 | 75 | 1008.8 |
| 20260510041020 | 15 | 304 | 0.0 | 4.8 | 0.00 | 0.00 | 0.00 | 76 | 1006.6 |
| 20260510040601 | 15 | 117 | 0.0 | 11.3 | 0.00 | 0.00 | 0.00 | 76 | 1008.6 |
| 20260510040518 | 15 | 296 | 0.0 | 8.0 | 0.00 | 0.00 | 0.00 | 77 | 1006.4 |
| 20260510040058 | 16 | 267 | 1.6 | 11.3 | 0.00 | 0.00 | 0.00 | 76 | 1008.6 |
| 20260510040017 | 16 | 292 | 0.0 | 8.0 | 0.00 | 0.00 | 0.00 | 76 | 1006.3 |
| 20260510035558 | 16 | 242 | 1.6 | 14.5 | 0.00 | 0.00 | 0.00 | 76 | 1008.6 |
| 20260510035517 | 16 | 305 | 1.6 | 8.0 | 0.00 | 0.00 | 0.00 | 76 | 1006.4 |
| 20260510035059 | 16 | 296 | 3.2 | 20.9 | 0.00 | 0.00 | 0.00 | 75 | 1008.5 |
| 20260510035017 | 16 | 288 | 3.2 | 11.3 | 0.00 | 0.00 | 0.00 | 76 | 1006.3 |
| 20260510034559 | 16 | 239 | 4.8 | 20.9 | 0.00 | 0.00 | 0.00 | 76 | 1008.2 |
| 20260510034517 | 16 | 300 | 4.8 | 11.3 | 0.00 | 0.00 | 0.00 | 76 | 1006.1 |
| 20260510034100 | 16 | 264 | 3.2 | 14.5 | 0.00 | 0.00 | 0.00 | 75 | 1008.1 |
| 20260510034017 | 16 | 290 | 0.0 | 4.8 | 0.00 | 0.00 | 0.00 | 76 | 1005.9 |
| 20260510033604 | 16 | 253 | 0.0 | 17.7 | 0.00 | 0.00 | 0.00 | 75 | 1008.0 |
| 20260510033516 | 16 | 313 | 0.0 | 1.6 | 0.00 | 0.00 | 0.00 | 76 | 1005.9 |
| 20260510033113 | 16 | 239 | 4.8 | 17.7 | 0.00 | 0.00 | 0.00 | 75 | 1007.4 |
| 20260510033016 | 16 | 214 | 0.0 | 0.0 | 0.00 | 0.00 | 0.00 | 76 | 1005.2 |
| 20260510032558 | 16 | 223 | 8.0 | 17.7 | 0.00 | 0.00 | 0.00 | 75 | 1007.4 |
| 20260510032516 | 16 | 214 | 0.0 | 0.0 | 0.00 | 0.00 | 0.00 | 76 | 1005.2 |
| 20260510032100 | 16 | 257 | 6.4 | 14.5 | 0.00 | 0.00 | 0.00 | 76 | 1007.3 |
| 20260510031558 | 15 | 266 | 6.4 | 16.1 | 0.00 | 0.00 | 0.00 | 76 | 1007.3 |
| 20260510031551 | 15 | 214 | 0.0 | 0.0 | 0.00 | 0.00 | 0.00 | 76 | 1005.1 |
| 20260510031058 | 15 | 227 | 6.4 | 16.1 | 0.00 | 0.00 | 0.00 | 76 | 1007.1 |
| 20260510031045 | 15 | 207 | 0.0 | 0.0 | 0.00 | 0.00 | 0.00 | 76 | 1005.0 |
| 20260510030558 | 15 | 222 | 4.8 | 14.5 | 0.00 | 0.00 | 0.00 | 75 | 1007.0 |
| 20260510030547 | 15 | 207 | 0.0 | 0.0 | 0.00 | 0.00 | 0.00 | 76 | 1004.8 |
| 20260510030104 | 15 | 233 | 4.8 | 17.7 | 0.00 | 0.00 | 0.00 | 75 | 1006.9 |
| 20260510030045 | 15 | 207 | 0.0 | 0.0 | 0.00 | 0.00 | 0.00 | 75 | 1004.8 |
| 20260510025558 | 15 | 223 | 4.8 | 17.7 | 0.00 | 0.00 | 0.00 | 75 | 1006.9 |
| 20260510025545 | 15 | 207 | 0.0 | 0.0 | 0.00 | 0.00 | 0.00 | 75 | 1004.8 |
| 20260510025102 | 16 | 241 | 6.4 | 14.5 | 0.00 | 0.00 | 0.00 | 75 | 1006.9 |
| 20260510025044 | 16 | 207 | 0.0 | 0.0 | 0.00 | 0.00 | 0.00 | 75 | 1004.8 |
| 20260510024606 | 15 | 218 | 6.4 | 14.5 | 0.00 | 0.00 | 0.00 | 75 | 1006.8 |
| 20260510024549 | 15 | 207 | 0.0 | 0.0 | 0.00 | 0.00 | 0.00 | 76 | 1004.8 |
| 20260510024100 | 15 | 220 | 8.0 | 14.5 | 0.00 | 0.00 | 0.00 | 75 | 1006.9 |
| 20260510024044 | 15 | 207 | 0.0 | 0.0 | 0.00 | 0.00 | 0.00 | 76 | 1004.8 |
| 20260510023557 | 15 | 215 | 4.8 | 12.9 | 0.00 | 0.00 | 0.00 | 76 | 1006.8 |
| 20260510023544 | 15 | 207 | 0.0 | 0.0 | 0.00 | 0.00 | 0.00 | 76 | 1004.7 |
| 20260510023058 | 15 | 221 | 6.4 | 12.9 | 0.00 | 0.00 | 0.00 | 76 | 1006.8 |
| 20260510023044 | 15 | 207 | 0.0 | 0.0 | 0.00 | 0.00 | 0.00 | 76 | 1004.7 |
| 20260510022600 | 15 | 215 | 4.8 | 12.9 | 0.00 | 0.00 | 0.00 | 76 | 1006.7 |
| 20260510022544 | 15 | 207 | 0.0 | 0.0 | 0.00 | 0.00 | 0.00 | 77 | 1004.7 |
| 20260510022100 | 16 | 205 | 4.8 | 12.9 | 0.00 | 0.00 | 0.00 | 77 | 1006.7 |
| 20260510022044 | 15 | 207 | 0.0 | 0.0 | 0.00 | 0.00 | 0.00 | 77 | 1004.6 |
| 20260510021643 | 16 | 207 | 0.0 | 0.0 | 0.00 | 0.00 | 0.00 | 77 | 1004.5 |
| 20260510021600 | 16 | 217 | 6.4 | 14.5 | 0.00 | 0.00 | 0.00 | 76 | 1006.6 |
| 20260510021059 | 16 | 201 | 6.4 | 14.5 | 0.00 | 0.00 | 0.00 | 76 | 1006.6 |
| 20260510021042 | 16 | 207 | 0.0 | 0.0 | 0.00 | 0.00 | 0.00 | 77 | 1004.5 |
| 20260510020559 | 16 | 200 | 6.4 | 14.5 | 0.00 | 0.00 | 0.00 | 76 | 1006.7 |
| 20260510020543 | 16 | 207 | 0.0 | 0.0 | 0.00 | 0.00 | 0.00 | 77 | 1004.5 |
| 20260510020059 | 16 | 218 | 6.4 | 16.1 | 0.00 | 0.00 | 0.00 | 76 | 1006.6 |
| 20260510020046 | 16 | 207 | 0.0 | 0.0 | 0.00 | 0.00 | 0.00 | 76 | 1004.5 |
| 20260510015600 | 16 | 209 | 6.4 | 16.1 | 0.00 | 0.00 | 0.00 | 76 | 1006.6 |
| 20260510015543 | 16 | 207 | 0.0 | 0.0 | 0.00 | 0.00 | 0.00 | 76 | 1004.5 |
| 20260510015058 | 16 | 239 | 6.4 | 17.7 | 0.00 | 0.00 | 0.00 | 76 | 1006.6 |
| 20260510015042 | 16 | 207 | 0.0 | 0.0 | 0.00 | 0.00 | 0.00 | 76 | 1004.4 |
| 20260510014559 | 16 | 202 | 6.4 | 17.7 | 0.00 | 0.00 | 0.00 | 76 | 1006.5 |
| 20260510014543 | 16 | 207 | 0.0 | 0.0 | 0.00 | 0.00 | 0.00 | 76 | 1004.2 |
| 20260510014101 | 16 | 237 | 8.0 | 24.1 | 0.00 | 0.00 | 0.00 | 76 | 1006.5 |
| 20260510014042 | 16 | 220 | 0.0 | 0.0 | 0.00 | 0.00 | 0.00 | 76 | 1004.3 |
| 20260510013601 | 16 | 248 | 8.0 | 24.1 | 0.00 | 0.00 | 0.00 | 75 | 1006.6 |
| 20260510013542 | 16 | 221 | 0.0 | 0.0 | 0.00 | 0.00 | 0.00 | 76 | 1004.3 |
| 20260510013059 | 16 | 239 | 8.0 | 17.7 | 0.00 | 0.00 | 0.00 | 76 | 1006.5 |
| 20260510013042 | 16 | 222 | 0.0 | 0.0 | 0.00 | 0.00 | 0.00 | 76 | 1004.3 |
| 20260510012600 | 16 | 245 | 6.4 | 17.7 | 0.00 | 0.00 | 0.00 | 76 | 1006.5 |
| 20260510012542 | 16 | 223 | 0.0 | 0.0 | 0.00 | 0.00 | 0.00 | 77 | 1004.3 |
| 20260510012058 | 16 | 241 | 6.4 | 12.9 | 0.00 | 0.00 | 0.00 | 77 | 1006.4 |
| 20260510012042 | 16 | 228 | 0.0 | 0.0 | 0.00 | 0.00 | 0.00 | 77 | 1004.3 |
| 20260510011558 | 16 | 215 | 4.8 | 11.3 | 0.00 | 0.00 | 0.00 | 77 | 1006.1 |
| 20260510011551 | 16 | 228 | 0.0 | 0.0 | 0.00 | 0.00 | 0.00 | 77 | 1004.0 |
| 20260510011059 | 16 | 209 | 4.8 | 11.3 | 0.00 | 0.00 | 0.00 | 76 | 1006.0 |
| 20260510011041 | 16 | 228 | 0.0 | 0.0 | 0.00 | 0.00 | 0.00 | 77 | 1003.8 |
| 20260510010557 | 16 | 200 | 3.2 | 9.7 | 0.00 | 0.00 | 0.00 | 76 | 1006.0 |
| 20260510010542 | 16 | 228 | 0.0 | 0.0 | 0.00 | 0.00 | 0.00 | 77 | 1003.7 |
| 20260510010042 | 16 | 228 | 0.0 | 0.0 | 0.00 | 0.00 | 0.00 | 77 | 1003.7 |
| 20260510005558 | 16 | 211 | 3.2 | 9.7 | 0.00 | 0.00 | 0.00 | 76 | 1006.0 |
| 20260510005541 | 16 | 228 | 0.0 | 0.0 | 0.00 | 0.00 | 0.00 | 76 | 1003.6 |
| 20260510005059 | 16 | 207 | 4.8 | 9.7 | 0.00 | 0.00 | 0.00 | 75 | 1005.9 |
| 20260510005041 | 16 | 228 | 0.0 | 0.0 | 0.00 | 0.00 | 0.00 | 76 | 1003.5 |
| 20260510004602 | 16 | 212 | 4.8 | 9.7 | 0.00 | 0.00 | 0.00 | 75 | 1005.9 |
| 20260510004545 | 16 | 228 | 0.0 | 0.0 | 0.00 | 0.00 | 0.00 | 75 | 1003.6 |
| 20260510004059 | 16 | 212 | 4.8 | 12.9 | 0.00 | 0.00 | 0.00 | 75 | 1005.9 |
| 20260510004041 | 16 | 228 | 0.0 | 0.0 | 0.00 | 0.00 | 0.00 | 75 | 1003.6 |
| 20260510003600 | 16 | 212 | 4.8 | 12.9 | 0.00 | 0.00 | 0.00 | 74 | 1006.0 |
| 20260510003541 | 16 | 228 | 0.0 | 0.0 | 0.00 | 0.00 | 0.00 | 75 | 1003.5 |
| 20260510003100 | 16 | 228 | 0.0 | 0.0 | 0.00 | 0.00 | 0.00 | 74 | 1003.5 |
| 20260510003059 | 16 | 225 | 4.8 | 14.5 | 0.00 | 0.00 | 0.00 | 74 | 1005.8 |
| 20260510002600 | 16 | 219 | 4.8 | 16.1 | 0.00 | 0.00 | 0.00 | 73 | 1005.8 |
| 20260510002541 | 16 | 228 | 0.0 | 0.0 | 0.00 | 0.00 | 0.00 | 73 | 1003.5 |
| 20260510002100 | 17 | 210 | 8.0 | 16.1 | 0.00 | 0.00 | 0.00 | 72 | 1005.9 |
| 20260510002039 | 17 | 228 | 0.0 | 0.0 | 0.00 | 0.00 | 0.00 | 73 | 1003.5 |
| 20260510001559 | 17 | 227 | 8.0 | 16.1 | 0.00 | 0.00 | 0.00 | 72 | 1005.9 |
| 20260510001541 | 17 | 228 | 0.0 | 0.0 | 0.00 | 0.00 | 0.00 | 73 | 1003.5 |
| 20260510001100 | 17 | 213 | 6.4 | 17.7 | 0.00 | 0.00 | 0.00 | 72 | 1005.9 |
| 20260510001040 | 17 | 242 | 0.0 | 0.0 | 0.00 | 0.00 | 0.00 | 73 | 1003.5 |
| 20260510000600 | 17 | 241 | 6.4 | 20.9 | 0.00 | 0.00 | 0.00 | 71 | 1005.9 |
| 20260510000540 | 17 | 242 | 0.0 | 0.0 | 0.00 | 0.00 | 0.00 | 72 | 1003.6 |
| 20260510000103 | 17 | 228 | 11.3 | 25.7 | 0.00 | 0.00 | 0.00 | 71 | 1005.8 |
| 20260510000044 | 17 | 244 | 0.0 | 0.0 | 0.00 | 0.00 | 0.00 | 72 | 1003.5 |
| 20260509235606 | 17 | 193 | 8.0 | 25.7 | 0.00 | 0.00 | 0.00 | 71 | 1005.7 |
| 20260509235539 | 17 | 221 | 0.0 | 3.2 | 0.00 | 0.00 | 0.00 | 71 | 1003.5 |
| 20260509235100 | 17 | 208 | 12.9 | 25.7 | 0.00 | 0.00 | 0.00 | 70 | 1005.8 |
| 20260509235038 | 17 | 218 | 0.0 | 3.2 | 0.00 | 0.00 | 0.00 | 70 | 1003.5 |
| 20260509234600 | 17 | 216 | 9.7 | 25.7 | 0.00 | 0.00 | 0.00 | 70 | 1005.8 |
| 20260509234556 | 17 | 242 | 0.0 | 1.6 | 0.00 | 0.00 | 0.00 | 70 | 1003.5 |
| 20260509234100 | 17 | 202 | 11.3 | 27.4 | 0.00 | 0.00 | 0.00 | 69 | 1005.7 |
| 20260509234037 | 17 | 228 | 0.0 | 1.6 | 0.00 | 0.00 | 0.00 | 69 | 1003.5 |
| 20260509233603 | 17 | 246 | 9.7 | 27.4 | 0.00 | 0.00 | 0.00 | 68 | 1005.8 |
| 20260509233537 | 17 | 244 | 0.0 | 3.2 | 0.00 | 0.00 | 0.00 | 69 | 1003.5 |
| 20260509233059 | 17 | 238 | 11.3 | 30.6 | 0.00 | 0.00 | 0.00 | 69 | 1005.8 |
| 20260509233041 | 17 | 251 | 0.0 | 3.2 | 0.00 | 0.00 | 0.00 | 69 | 1003.4 |
| 20260509232558 | 17 | 236 | 11.3 | 30.6 | 0.00 | 0.00 | 0.00 | 70 | 1005.8 |
| 20260509232538 | 17 | 209 | 0.0 | 3.2 | 0.00 | 0.00 | 0.00 | 70 | 1003.4 |
| 20260509232058 | 17 | 242 | 11.3 | 29.0 | 0.00 | 0.00 | 0.00 | 70 | 1005.6 |
| 20260509232038 | 17 | 254 | 0.0 | 3.2 | 0.00 | 0.00 | 0.00 | 71 | 1003.4 |
| 20260509231557 | 17 | 234 | 11.3 | 27.4 | 0.00 | 0.00 | 0.00 | 70 | 1005.7 |
| 20260509231548 | 17 | 242 | 0.0 | 1.6 | 0.00 | 0.00 | 0.00 | 70 | 1003.4 |
| 20260509231059 | 17 | 205 | 14.5 | 27.4 | 0.00 | 0.00 | 0.00 | 70 | 1005.8 |
| 20260509231037 | 17 | 220 | 0.0 | 1.6 | 0.00 | 0.00 | 0.00 | 70 | 1003.5 |
| 20260509230603 | 17 | 223 | 11.3 | 33.8 | 0.00 | 0.00 | 0.00 | 70 | 1005.9 |
| 20260509230537 | 17 | 257 | 0.0 | 1.6 | 0.00 | 0.00 | 0.00 | 71 | 1003.5 |
| 20260509230058 | 17 | 238 | 9.7 | 33.8 | 0.00 | 0.00 | 0.00 | 71 | 1005.7 |
| 20260509230037 | 17 | 253 | 0.0 | 1.6 | 0.00 | 0.03 | 0.00 | 71 | 1003.4 |
| 20260509225558 | 17 | 238 | 11.3 | 27.4 | 0.00 | 0.03 | 0.00 | 70 | 1005.7 |
| 20260509225536 | 17 | 240 | 0.0 | 1.6 | 0.00 | 0.03 | 0.00 | 71 | 1003.4 |